Regional Weather Roundup
Issued by NWS Lake Charles, LA

Current Version | Previous Version | Text Only | Print | Product List | Glossary On
Versions: 1 2 3 4 5 6 7 8 9 10 11 12 13 14 15 16 17 18 19 20 21 22 23 24 25 26 27 28
000
ASUS44 KLCH 261510
RWRLCH
REGIONAL WEATHER ROUNDUP
NATIONAL WEATHER SERVICE LAKE CHARLES LA
1000 AM CDT SUN JUN 26 2016

Note: "fair" indicates few or no clouds below 12,000 feet with no
significant weather and/or obstructions to visibility.


ACROSS SOUTHEAST TEXAS

CITY           SKY/WX    TMP DP  RH WIND       PRES   REMARKS
BEAUMONT       MOSUNNY   86  74  67 CALM      30.13R
BEAUMONT CITY  FAIR      88  73  60 CALM      30.14S
ORANGE         PTSUNNY   84  76  76 CALM      30.15S
JASPER         SUNNY     83  75  76 CALM      30.17S
$$

ACROSS CENTRAL LOUISIANA

CITY           SKY/WX    TMP DP  RH WIND       PRES   REMARKS
LEESVILLE      SUNNY     86  75  68 VRB3      30.14F
FULLERTON      FAIR      88  75  65 VRB3      30.12F
ALEXANDRIA INT SUNNY     87  75  67 N7        30.13S
ESLER FIELD    MOSUNNY   90  76  63 W6        30.14F HX 101
DERIDDER       FAIR      85  76  76 CALM      30.17S
OAKDALE        MOSUNNY   87  77  72 N3        30.14F
OPELOUSAS      FAIR      85  77  76 N9        30.14S
$$

ACROSS SOUTHWEST AND SOUTH CENTRAL LOUISIANA

CITY           SKY/WX    TMP DP  RH WIND       PRES   REMARKS
SULPHUR        MOSUNNY   86  76  70 CALM      30.14S
LAKE CHARLES   PTSUNNY   88  74  63 N3        30.13S
CHENNAULT INT  MOSUNNY   84  77  79 MISG      30.13F
CAMERON PHI    NOT AVBL
DEQUINCY       FAIR      84  77  77 CALM      30.14S
JENNINGS       NOT AVBL
LAFAYETTE      SUNNY     89  76  65 N7        30.14S HX 100
NEW IBERIA     SUNNY     88  75  65 VRB3      30.14S
ABBEVILLE      FAIR      87  78  74 NE6       30.14S
PATTERSON      PTSUNNY   86  78  77 N5        30.14S
SALT POINT       N/A     83  76  79 CALM      30.12
$$

SELECTED SITES ACROSS THE REGION

CITY           SKY/WX    TMP DP  RH WIND       PRES   REMARKS
HOUSTON BUSH   PTSUNNY   85  74  69 CALM      30.13R
HOUSTON HOBBY  PTSUNNY   87  75  67 CALM      30.12R
GALVESTON      MOSUNNY   87  78  74 VRB5      30.12F HX 100
COLLEGE STAT   MOSUNNY   84  76  76 S6        30.13S
CONROE         PTSUNNY   86  75  69 S3        30.14S
HUNTSVILLE     SUNNY     86  71  60 VRB6      30.14F
LUFKIN         MOSUNNY   85  75  72 VRB3      30.15S
SHREVEPORT     MOSUNNY   89  77  67 NW7       30.13S HX 101
MONROE         SUNNY     89  77  67 N6        30.15S HX 101
NATCHEZ MS     NOT AVBL
BATON ROUGE    MOSUNNY   88  75  65 N6        30.14S
N.O. INTL ARPT MOSUNNY   90  76  63 N9        30.13S HX 101
SLIDELL        SUNNY     88  77  69 NW7       30.12S HX 100
$$

MARINE REPORTS

STATION/POSITION TIME  SKY/WX   TEMP    WIND        PRES    VSBY
                                AIR SEA DIR/SP/G
                 (UTC)          (F)     (DEG/KT/KT) (MB)    (MI)
BUOY 30 S HIGH I 1450            85 86  110/  6/  6 1019.9R
WVE H/P(F/S)=  2/ 5

SEA RIM ST PARK  1500            86     150/  4/  6 1020.6S
PORT ARTHUR      1400               85  110/  4/  5 1020.4R
SABINE PASS N    1400            87 88  110/  2/  3 1021.6R
TEXAS POINT      NOT AVBL
CALCASIEU PASS   1400            85 88   10/  4/  5 1019.8R
LK CHARLES BEACH 1400            84 83              1021.1R
MARSH ISLAND     1400            86                   N/A
FRESH WATER LOCK 1400            84 87  350/  7/  9 1021.0R
AMERADA PASS     1400            83 85   10/  2/  6 1020.5R
$$




USA.gov is the U.S. government's official web portal to all federal, state and local government web resources and services.